Flag Weather past 2 weeks in Winterthur, Switzerland

Now
46 °F

Broken clouds.


Feels Like: 45 °F
Forecast: 37 / 53 °F
Wind: 3 mph from Northeast

Location: Zurich-Kloten

Current Time: Nov 26, 2014 at 11:41:51 AM

Latest Report: Nov 26, 2014 at 11:20 AM


Visibility: 4 mi

Pressure: 29.98 "Hg

Humidity: 93%

Dew point: 45 °F

Location of WinterthurLocation

Historic Weather in Winterthur — Graph

°F

Winterthur temperature yesterday

Maximum temperature yesterday: 48 °F (at 1:50 AM)
Minimum temperature yesterday: 45 °F (at 10:50 PM)
Average temperature yesterday: 47 °F

Past Weeks' High & Low Weather Summary

 TemperatureHumidityPressure
High54 °F (Nov 13, 12:50 PM)100% (Nov 11, 10:20 AM)30.27 "Hg (Nov 11, 10:20 AM)
Low34 °F (Nov 19, 11:50 PM)67% (Nov 16, 3:20 PM)29.56 "Hg (Nov 15, 5:20 PM)
Average45 °F93%29.94 "Hg
* Reported Nov 11 10:20 AM — Nov 26 10:20 AM, Winterthur, Weather by CustomWeather, © 2014

Note: Actual official high and low records may vary slightly from our data, if they occured in-between our weather recording intervals... More about our weather records

Advertising

Winterthur weather history for previous 24 hours

 ConditionsComfort  
Time TempWeatherWind HumidityBarometerVisibility
10:20 AM
Nov 26
46 °FFog.3 mph93%30.01 "Hg3 mi
9:50 AM46 °FFog.2 mph93%30.01 "Hg3 mi
9:20 AM45 °FFog.2 mph100%30.01 "Hg2 mi
8:50 AM45 °FFog.2 mph100%30.01 "Hg3 mi
8:20 AM45 °FFog.2 mph100%30.01 "Hg2 mi
7:50 AM45 °FFog.2 mph100%30.01 "Hg2 mi
7:20 AM45 °FFog.2 mph100%30.01 "Hg2 mi
6:50 AM45 °FFog.No wind100%30.01 "Hg2 mi
6:20 AM45 °FFog.No wind100%30.01 "Hg3 mi
5:50 AM45 °FFog.No wind100%30.01 "Hg3 mi
5:20 AM45 °FFog.2 mph100%30.01 "Hg2 mi
4:20 AM45 °FFog.No wind100%30.01 "Hg2 mi
3:50 AM45 °FFog.2 mph100%30.01 "Hg2 mi
3:20 AM45 °FFog.No wind100%30.04 "Hg2 mi
2:50 AM45 °FFog.No wind100%30.04 "Hg2 mi
2:20 AM45 °FFog.No wind100%30.04 "Hg2 mi
1:50 AM45 °FFog.No wind100%30.04 "Hg2 mi
12:50 AM45 °FDrizzle. Fog.No wind100%30.07 "Hg2 mi
12:20 AM45 °FDrizzle. Fog.2 mph100%30.07 "Hg2 mi
11:50 PM
Nov 25
45 °FDrizzle. Fog.2 mph100%30.07 "Hg3 mi
11:20 PM45 °FPartly cloudy.3 mph100%30.07 "Hg3 mi
10:50 PM45 °FPartly cloudy.2 mph100%30.07 "Hg3 mi
10:20 PM46 °FPassing clouds.2 mph93%30.07 "Hg4 mi
9:50 PM46 °FPassing clouds.2 mph93%30.07 "Hg4 mi
9:20 PM46 °FPassing clouds.6 mph87%30.07 "Hg4 mi
8:50 PM46 °FPassing clouds.6 mph93%30.07 "Hg4 mi
8:20 PM46 °FFog.6 mph93%30.07 "Hg3 mi
7:50 PM46 °FFog.7 mph93%30.09 "Hg3 mi
7:20 PM46 °FFog.6 mph93%30.09 "Hg3 mi
6:50 PM46 °FFog.6 mph93%30.09 "Hg3 mi
6:20 PM46 °FFog.6 mph93%30.09 "Hg3 mi
5:50 PM46 °FFog.7 mph93%30.09 "Hg3 mi
5:20 PM46 °FFog.5 mph93%30.09 "Hg3 mi
4:50 PM46 °FFog.5 mph93%30.09 "Hg3 mi
4:20 PM46 °FBroken clouds.5 mph93%30.09 "Hg4 mi
3:50 PM46 °FBroken clouds.5 mph93%30.09 "Hg4 mi
3:20 PM46 °FPartly sunny.5 mph93%30.09 "Hg4 mi
2:50 PM46 °FPartly sunny.7 mph93%30.09 "Hg4 mi
2:20 PM46 °FFog.6 mph93%30.12 "Hg3 mi
1:50 PM48 °FFog.7 mph87%30.12 "Hg3 mi
1:20 PM48 °FFog.6 mph94%30.12 "Hg3 mi
12:50 PM48 °FFog.6 mph87%30.12 "Hg3 mi
12:20 PM48 °FFog.3 mph87%30.15 "Hg3 mi
11:50 AM48 °FFog.5 mph87%30.15 "Hg3 mi
11:20 AM48 °FFog.6 mph87%30.15 "Hg3 mi
Weather by CustomWeather, © 2014

See weather overviewHow to use our weather pages